Regional Weather Roundup
Issued by NWS

Home | Current Version | Previous Version | Graphics & Text | Print | Product List | Glossary On
Versions: 1 2 3 4 5 6 7 8 9 10 11 12 13 14 15 16 17 18 19 20 21 22 23 24 25 26 27 28 29 30 31 32 33 34 35 36 37 38 39 40 41 42 43 44 45 46 47 48 49 50
000
ASUS43 KMKX 250400
RWRWI

WISCONSIN REGIONAL WEATHER ROUNDUP
NATIONAL WEATHER SERVICE MILWAUKEE/SULLIVAN WI
1000 PM CST WED DEC 24 2014

NOTE: "FAIR" INDICATES FEW OR NO CLOUDS BELOW 12,000 FEET WITH NO
SIGNIFICANT WEATHER AND/OR OBSTRUCTIONS TO VISIBILITY.

WIZ001-002-006>008-014>016-023>028-250500-
NORTHWEST WISCONSIN

CITY           SKY/WX    TMP DP  RH WIND       PRES   REMARKS
SUPERIOR ARPT  CLOUDY    33  31  94 SW6       29.52F WCI  27
ASHLAND        CLOUDY    33  31  92 SW6       29.52S WCI  28
HAYWARD        CLOUDY    32  28  85 SW5       29.53S WCI  27
SIREN          CLOUDY    32  30  90 W9        29.55F WCI  25
CUMBERLAND     CLOUDY    32  28  86 W6        29.55S WCI  26
RICE LAKE      CLOUDY    33  29  84 W6        29.57S WCI  27
CHETEK         CLOUDY    32  30  90 SW3       29.56S
LADYSMITH      CLOUDY    32  31  96 W3        29.56S
EAU CLAIRE     NOT AVBL
MENOMONIE      CLOUDY    34  30  86 SW5       29.59S WCI  30
NEW RICHMOND   CLOUDY    33  31  96 W8        29.58S WCI  25
OSCEOLA        CLOUDY    33  32  97 SW7       29.60F WCI  27
$$

WIZ003>005-009-010-017-018-250500-
NORTH CENTRAL WISCONSIN

CITY           SKY/WX    TMP DP  RH WIND       PRES   REMARKS
MANITOWISH WTR CLOUDY    29  29 100 W6        29.47S WCI  23
ARBOR VITAE    CLOUDY    32  30  94 W6        29.47S WCI  26
WOODRUFF       CLOUDY    32  30  94 W6        29.47S WCI  26
RHINELANDER    CLOUDY    29  27  92 W8        29.47S WCI  21
EAGLE RIVER    CLOUDY    29  29  99 W7        29.45S WCI  22
LAND O LAKES   CLOUDY    30  29  96 W3        29.45S
PHILLIPS       CLOUDY    30  29  96 CALM      29.50S
TOMAHAWK       CLOUDY    29  28  95 CALM      29.50S
MEDFORD        MOCLDY    30  28  92 W8        29.52S WCI  23
MERRILL        PTCLDY    30  29  96 NW3       29.49F
$$

WIZ029-030-035-036-043>047-250500-
CENTRAL WISCONSIN

CITY           SKY/WX    TMP DP  RH WIND       PRES   REMARKS
WAUSAU         CLOUDY    32  29  88 W8        29.50R WCI  25
MOSINEE        CLOUDY    32  30  93 W7        29.52R WCI  26
MARSHFIELD     CLOUDY    33  29  85 W10       29.54R WCI  25
STEVENS POINT  CLOUDY    31  29  90 W5        29.53R WCI  27
WAUPACA        CLOUDY    36  32  87 W7        29.53R WCI  30
WAUTOMA        CLOUDY    34  34 100 W9        29.55R WCI  26
WISC RAPIDS    CLOUDY    33  29  85 W7        29.56R WCI  27
CAMP DOUGLAS   NOT AVBL
$$

WIZ011>013-019>022-031-037>040-048>050-250500-
NORTHEAST WISCONSIN

CITY           SKY/WX    TMP DP  RH WIND       PRES   REMARKS
ANTIGO         CLOUDY    30  28  93 W9        29.47S WCI  22
SHAWANO        CLOUDY    35  31  88 W5        29.49F WCI  31
OCONTO         CLOUDY    32  32  99 W5        29.47F WCI  28
STURGEON BAY   CLOUDY    32  28  86 NW9       29.47S WCI  24
GREEN BAY      CLOUDY    34  31  88 W8        29.50R WCI  27
MANITOWOC      CLOUDY    34  34 100 W8        29.49S WCI  27
APPLETON       CLOUDY    34  32  93 NW12      29.51R WCI  25
CLINTONVILLE   CLOUDY    34  32  93 W7        29.50S WCI  28
OSHKOSH        CLOUDY    34  30  85 W7        29.52R WCI  28
$$

WIZ032>034-041-042-053>061-250500-
SOUTHWEST WISCONSIN

CITY           SKY/WX    TMP DP  RH WIND       PRES   REMARKS
LA CROSSE      CLOUDY    36  29  75 W9        29.62R WCI  29
SPARTA         CLOUDY    34  30  85 W7        29.61R WCI  28
VIROQUA        CLOUDY    33  33 100 W8        29.59S WCI  25
BOSCOBEL       CLOUDY    36  29  75 W8        29.64R WCI  30
PRAIRIE DU CHI CLOUDY    35  28  76 W9        29.65R WCI  28
PLATTEVILLE    CLOUDY    34  32  93 W12       29.65R WCI  25
$$

WIZ056-057-062-063-064-067-068-250500-
SOUTH CENTRAL WISCONSIN

CITY           SKY/WX    TMP DP  RH WIND       PRES   REMARKS
REEDSBURG      CLOUDY    33  32  94 W8        29.58S WCI  27
BARABOO/DELLS  CLOUDY    33  31  94 W7        29.57S WCI  27
LONE ROCK      NOT AVBL
MINERAL POINT  CLOUDY    34  32  93 W12       29.61R WCI  25
MADISON        CLOUDY    35  31  85 W7        29.58R WCI  29
MIDDLETON      CLOUDY    36  34  94 W9        29.59R WCI  29
WATERTOWN      CLOUDY    34  32  94 W8        29.55R WCI  27
MONROE         CLOUDY    34  32  93 W12G17    29.60R WCI  25
JANESVILLE     CLOUDY    36  32  87 W10       29.59R WCI  28
$$

WIZ051-052-058>065-066-070>072-250500-
SOUTHEAST WISCONSIN

CITY           SKY/WX    TMP DP  RH WIND       PRES   REMARKS
MILWAUKEE      CLOUDY    36  31  82 W12G20    29.54R WCI  28
WAUKESHA       CLOUDY    32  32 100 W16       29.55R WCI  21
MILWAUKEE/TIMM CLOUDY    34  32  93 W14       29.54R WCI  24
RACINE         CLOUDY    36  32  85 W13       29.55R WCI  27
BURLINGTON     CLOUDY    33  32  96 W12       29.56R WCI  24
KENOSHA        CLOUDY    36  32  85 W17G23    29.55R WCI  26
FOND DU LAC    CLOUDY    34  30  85 W10       29.53R WCI  26
SHEBOYGAN      CLOUDY    34  31  88 W10       29.51R WCI  26
WEST BEND      CLOUDY    34  32  93 W13       29.52R WCI  25
JUNEAU         CLOUDY    33  31  92 W7        29.55R WCI  27
$$

LSZ147-162-250500-
LAKE SUPERIOR

STATION/POSITION TIME  TEMP    WIND        PRES    WAVE
                       AIR SEA DIR/SP/G            HT/PER
                 (UTC) (F)     (DEG/KT/KT) (MB)    (FT/S)
DEVILS ISLAND    0300   34     240/  8/ 10  999.9F
PORT WING        0300   33     210/  4/  5 1000.3F
SAXON HARBOR     0300   33     200/  5/  6  999.7F
$$

LMZ867-665-643>646-250500-
LAKE MICHIGAN

STATION/POSITION TIME  TEMP    WIND        PRES    WAVE
                       AIR SEA DIR/SP/G            HT/PER
                 (UTC) (F)     (DEG/KT/KT) (MB)    (FT/S)
CHAMBERS ISLAND  0340   33     260/  2/  8  998.0R
NORTHPORT PIER   0300   33     300/ 11/ 15  997.0S
SISTER BAY       0313          360/ 14/ 16   N/A
ALGOMA LAKESHORE 0315          320/  8/ 11   N/A
KEWAUNEE LAKESHO 0300   33     300/  7/ 13  997.2R
SHEBOYGAN LAKESH 0300   35 36  310/ 11/ 13  999.4R
PORT WASHINGTON  0340   36     290/  8/ 13 1000.3R
MILWAUKEE LAKESH 0300   36     290/ 13/ 18   N/A
KENOSHA   LAKESH 0300   37     280/ 14/ 21 1000.7R
$$

TC  - TEMPERATURE IN CELSIUS
VSB - VISIBILITY IN STATUTE MILES
WCI - WIND CHILL INDEX
HX  - HEAT INDEX



USA.gov is the U.S. government's official web portal to all federal, state and local government web resources and services.